Погода в Узде

Беларусь     53˚27′54″N   27˚12′53″E
темп.,
°C
ветер,
м/с
пор.,
м/с
влажн.,
%
обл.,
%
осадки,
мм/ч
давл.,
гПа
погр.,
м
6 декабря, вс
вс600:00+1˚юв7139099 0.0 1027627
03:00+1˚ююв71390100 0.0 1028679
06:00юв71389100 0.0 1028645
09:00−2˚юв7148895 0.0 1029542
12:00−1˚ююв8167832 0.0 1030582
15:00юв7156717 0.0 1030595
18:00−2˚юв615660 0.0 1030473
21:00−3˚юв615650 0.0 1031460
7 декабря, пн
пн700:00−3˚юв715650 0.0 1031517
03:00−3˚юв714710 0.0 1031547
06:00−4˚юв715710 0.0 1030559
09:00−5˚юв714710 0.0 1030573
12:00−4˚юв814650 0.0 1030601
15:00−3˚юв713590 0.0 1029656
18:00−4˚юв715630 0.0 1029561
21:00−5˚юв715670 0.0 1030609
8 декабря, вт
вт800:00−5˚юв714700 0.0 1029609
03:00−5˚юв613670 0.0 1029544
06:00−6˚юв613680 0.0 1029538
09:00−6˚вюв612680 0.0 1029504
12:00−5˚вюв611660 0.0 1029528
15:00−4˚вюв612620 0.0 1029539
18:00−5˚вюв613680 0.0 1028539
21:00−5˚вюв613700 0.0 1029697
9 декабря, ср
ср900:00−5˚юв5127518 0.0 1029656
03:00−6˚вюв4117525 0.0 1029509
06:00−6˚вюв5107416 0.0 1029405
09:00−6˚вюв5107243 0.0 1028418
12:00−5˚вюв596821 0.0 1028480
15:00−4˚вюв596642 0.0 1027534
18:00−5˚вюв598193 0.1 1026523
21:00−4˚вюв5107797 0.4 1026522
10 декабря, чт
чт1000:00−5˚вюв597899 0.0 1026500
03:00−5˚вюв5983100 0.0 1025395
06:00−4˚вюв5108693 0.0 1024381
09:00−4˚вюв599397 0.3 1024399
12:00−3˚вюв61088100 0.3 1024437
15:00−2˚вюв61093100 0.5 1023432
18:00−2˚вюв51291100 0.0 1022455
21:00−1˚вюв61394100 1.1 1021473